Flag for Germany Weather past 2 weeks in Mechernich, North Rhine-Westphalia, Germany

Now
64 °F

Partly sunny.


Feels Like: 64 °F
Forecast: 57 / 74 °F
Wind: 2 mph from Southwest

Location: Noervenich

Current Time: Jul 5, 2015 at 11:22:15 PM

Latest Report: Jul 5, 2015 at 10:20 PM


Visibility: N/A

Pressure: 30.04 "Hg

Humidity: 88%

Dew point: 61 °F

Location of MechernichLocation

Historic Weather in Mechernich — Graph

°F

Mechernich temperature yesterday

Maximum temperature yesterday: 97 °F (at 4:20 PM)
Minimum temperature yesterday: 72 °F (at 2:20 AM)
Average temperature yesterday: 85 °F

Past Weeks' High & Low Weather Summary

 TemperatureHumidityPressure
High99 °F (Jul 2, 4:20 PM)100% (Jun 22, 11:20 PM)30.24 "Hg (Jun 22, 11:20 PM)
Low48 °F (Jun 22, 11:20 PM)25% (Jun 30, 6:20 PM)29.68 "Hg (Jun 22, 8:20 PM)
Average69 °F65%30.07 "Hg
* Reported Jun 20 9:20 PM — Jul 5 9:20 PM, Mechernich, Weather by CustomWeather, © 2015

Note: Actual official high and low records may vary slightly from our data, if they occured in-between our weather recording intervals... More about our weather records

Advertising

Mechernich weather history for previous 24 hours

 ConditionsComfort  
Time TempWeatherWind HumidityBarometerVisibility
9:20 PM
Sun, Jul 5
64 °FThunderstorms. Partly sunny.6 mph94%30.01 "Hg6 mi
8:20 PM66 °FThunderstorms. Partly sunny.5 mph83%30.01 "HgN/A
7:50 PM70 °FThunderstorms. Partly sunny.6 mph64%30.01 "HgN/A
7:20 PM72 °FBroken clouds.9 mph65%29.98 "HgN/A
6:20 PM72 °FPartly sunny.17 mph69%30.01 "HgN/A
5:20 PM84 °FThunderstorms. Broken clouds.16 mph55%29.92 "HgN/A
4:20 PM88 °FScattered clouds.9 mph55%29.89 "HgN/A
3:20 PM84 °FBroken clouds.5 mph58%29.89 "HgN/A
2:20 PM86 °FBroken clouds.3 mph55%29.92 "HgN/A
1:20 PM81 °FPartly sunny.6 mph62%29.95 "HgN/A
12:20 PM79 °FScattered clouds.5 mph61%29.98 "HgN/A
11:20 AM77 °FPassing clouds.3 mph61%30.01 "HgN/A
10:20 AM72 °FPartly sunny.1 mph73%30.01 "HgN/A
9:20 AM68 °FThundershowers. Partly sunny.5 mph78%30.04 "HgN/A
8:20 AM68 °FPartly sunny.5 mph83%30.07 "HgN/A
7:20 AM66 °FPartly sunny.2 mph83%30.07 "HgN/A
6:20 AM64 °FThundershowers. Passing clouds.2 mph83%30.09 "HgN/A
5:20 AM68 °FPassing clouds.6 mph69%30.09 "HgN/A
4:20 AM68 °FPassing clouds.5 mph69%30.12 "HgN/A
3:20 AM70 °FPassing clouds.6 mph69%30.12 "HgN/A
2:20 AM72 °FMild.6 mph65%30.12 "HgN/A
1:20 AM73 °FMild.6 mph65%30.12 "HgN/A
12:20 AM79 °FPassing clouds.8 mph54%30.12 "HgN/A
11:20 PM
Sat, Jul 4
81 °FPartly cloudy.6 mph51%30.09 "HgN/A
Weather by CustomWeather, © 2015

See weather overviewHow to use our weather pages